Time,TemperatureF,DewpointF,PressureIn,WindDirection,WindDirectionDegrees,WindSpeedMPH,WindSpeedGustMPH,Humidity,HourlyPrecipIn,Conditions,Clouds,dailyrainin,SoftwareType,DateUTC
2013-04-17 00:03:00,66.7,56.2,30.29,NNW,341,0.0,2.0,69,0.00,,,0.00,WeatherCatV1.15B25,2013-04-17 04:03:00,
2013-04-17 00:08:00,66.6,55.7,30.29,NE,55,3.0,4.0,68,0.00,,,0.00,WeatherCatV1.15B25,2013-04-17 04:08:00,
2013-04-17 00:13:00,66.7,56.2,30.29,South,188,0.0,2.0,69,0.00,,,0.00,WeatherCatV1.15B25,2013-04-17 04:13:00,
2013-04-17 00:18:00,66.7,55.8,30.28,NNE,28,1.0,4.0,68,0.00,,,0.00,WeatherCatV1.15B25,2013-04-17 04:18:00,
2013-04-17 00:23:00,66.7,55.8,30.28,NE,52,0.0,0.0,68,0.00,,,0.00,WeatherCatV1.15B25,2013-04-17 04:23:00,
2013-04-17 00:28:00,66.6,55.7,30.28,West,261,1.0,2.0,68,0.00,,,0.00,WeatherCatV1.15B25,2013-04-17 04:28:00,
2013-04-17 00:33:00,66.6,55.7,30.28,SE,137,3.0,3.0,68,0.00,,,0.00,WeatherCatV1.15B25,2013-04-17 04:33:00,
2013-04-17 00:38:00,66.6,55.7,30.28,NW,322,0.0,1.0,68,0.00,,,0.00,WeatherCatV1.15B25,2013-04-17 04:38:00,
2013-04-17 00:43:00,66.4,55.9,30.28,NW,322,0.0,0.0,69,0.00,,,0.00,WeatherCatV1.15B25,2013-04-17 04:43:00,
2013-04-17 00:48:00,66.3,55.8,30.28,WNW,288,2.0,2.0,69,0.00,,,0.00,WeatherCatV1.15B25,2013-04-17 04:48:00,
2013-04-17 00:53:00,66.3,55.8,30.29,WNW,288,0.0,0.0,69,0.00,,,0.00,WeatherCatV1.15B25,2013-04-17 04:53:00,
2013-04-17 00:58:00,66.2,56.1,30.29,NNE,29,0.0,0.0,70,0.00,,,0.00,WeatherCatV1.15B25,2013-04-17 04:58:00,
2013-04-17 01:03:00,66.1,55.6,30.29,NE,44,0.0,0.0,69,0.00,,,0.00,WeatherCatV1.15B25,2013-04-17 05:03:00,
2013-04-17 01:08:00,66.2,55.7,30.29,NE,44,0.0,0.0,69,0.00,,,0.00,WeatherCatV1.15B25,2013-04-17 05:08:00,
2013-04-17 01:13:00,66.2,55.7,30.28,NNW,340,0.0,1.0,69,0.00,,,0.00,WeatherCatV1.15B25,2013-04-17 05:13:00,
2013-04-17 01:18:00,66.2,55.7,30.28,NE,44,1.0,2.0,69,0.00,,,0.00,WeatherCatV1.15B25,2013-04-17 05:18:00,
2013-04-17 01:23:00,66.2,56.1,30.28,NE,45,0.0,0.0,70,0.00,,,0.00,WeatherCatV1.15B25,2013-04-17 05:23:00,
2013-04-17 01:28:00,66.2,56.1,30.28,NE,45,0.0,0.0,70,0.00,,,0.00,WeatherCatV1.15B25,2013-04-17 05:28:00,
2013-04-17 01:33:00,66.1,56.0,30.27,NE,45,0.0,0.0,70,0.00,,,0.00,WeatherCatV1.15B25,2013-04-17 05:33:00,
2013-04-17 01:38:00,65.9,55.8,30.28,ENE,57,0.0,0.0,70,0.00,,,0.00,WeatherCatV1.15B25,2013-04-17 05:38:00,
2013-04-17 01:43:00,65.8,55.7,30.27,NE,48,0.0,0.0,70,0.00,,,0.00,WeatherCatV1.15B25,2013-04-17 05:43:00,
2013-04-17 01:48:00,65.5,55.8,30.27,NE,48,0.0,0.0,71,0.00,,,0.00,WeatherCatV1.15B25,2013-04-17 05:48:00,
2013-04-17 01:53:00,65.2,55.6,30.27,East,92,0.0,0.0,71,0.00,,,0.00,WeatherCatV1.15B25,2013-04-17 05:53:00,
2013-04-17 01:58:00,65.1,55.8,30.27,East,83,0.0,0.0,72,0.00,,,0.00,WeatherCatV1.15B25,2013-04-17 05:58:00,
2013-04-17 02:03:00,65.1,55.8,30.27,East,83,0.0,0.0,72,0.00,,,0.00,WeatherCatV1.15B25,2013-04-17 06:03:00,
2013-04-17 02:08:00,65.0,55.7,30.27,East,83,0.0,0.0,72,0.00,,,0.00,WeatherCatV1.15B25,2013-04-17 06:08:00,
2013-04-17 02:13:00,64.7,55.8,30.27,ENE,69,0.0,2.0,73,0.00,,,0.00,WeatherCatV1.15B25,2013-04-17 06:13:00,
2013-04-17 02:18:00,64.4,55.5,30.27,ENE,69,0.0,0.0,73,0.00,,,0.00,WeatherCatV1.15B25,2013-04-17 06:18:00,
2013-04-17 02:23:00,64.2,55.7,30.27,ENE,70,0.0,0.0,74,0.00,,,0.00,WeatherCatV1.15B25,2013-04-17 06:23:00,
2013-04-17 02:33:00,63.9,55.4,30.27,ENE,70,0.0,0.0,74,0.00,,,0.00,WeatherCatV1.15B25,2013-04-17 06:33:00,
2013-04-17 02:38:00,63.8,55.7,30.27,ENE,70,0.0,0.0,75,0.00,,,0.00,WeatherCatV1.15B25,2013-04-17 06:38:00,
2013-04-17 02:43:00,63.7,55.6,30.28,ENE,70,0.0,0.0,75,0.00,,,0.00,WeatherCatV1.15B25,2013-04-17 06:43:00,
2013-04-17 02:48:00,63.5,55.4,30.28,East,80,0.0,2.0,75,0.00,,,0.00,WeatherCatV1.15B25,2013-04-17 06:48:00,
2013-04-17 02:53:00,63.2,55.5,30.28,East,80,0.0,0.0,76,0.00,,,0.00,WeatherCatV1.15B25,2013-04-17 06:53:00,
2013-04-17 02:58:00,63.1,55.4,30.28,East,80,0.0,0.0,76,0.00,,,0.00,WeatherCatV1.15B25,2013-04-17 06:58:00,
2013-04-17 03:03:00,62.8,55.5,30.28,East,80,0.0,0.0,77,0.00,,,0.00,WeatherCatV1.15B25,2013-04-17 07:03:00,
2013-04-17 03:08:00,62.6,55.3,30.28,East,79,0.0,0.0,77,0.00,,,0.00,WeatherCatV1.15B25,2013-04-17 07:08:00,
2013-04-17 03:13:00,62.5,55.2,30.28,ENE,78,0.0,0.0,77,0.00,,,0.00,WeatherCatV1.15B25,2013-04-17 07:13:00,
2013-04-17 03:18:00,62.4,55.4,30.28,East,79,0.0,0.0,78,0.00,,,0.00,WeatherCatV1.15B25,2013-04-17 07:18:00,
2013-04-17 03:23:00,62.3,55.3,30.28,ENE,78,0.0,0.0,78,0.00,,,0.00,WeatherCatV1.15B25,2013-04-17 07:23:00,
2013-04-17 03:28:00,62.2,55.3,30.28,East,79,0.0,0.0,78,0.00,,,0.00,WeatherCatV1.15B25,2013-04-17 07:28:00,
2013-04-17 03:33:00,62.0,55.4,30.28,East,79,0.0,0.0,79,0.00,,,0.00,WeatherCatV1.15B25,2013-04-17 07:33:00,
2013-04-17 03:38:00,62.0,55.4,30.28,East,79,0.0,0.0,79,0.00,,,0.00,WeatherCatV1.15B25,2013-04-17 07:38:00,
2013-04-17 03:43:00,62.0,55.4,30.28,ENE,78,0.0,0.0,79,0.00,,,0.00,WeatherCatV1.15B25,2013-04-17 07:43:00,
2013-04-17 03:48:00,61.9,55.3,30.28,ENE,78,0.0,1.0,79,0.00,,,0.00,WeatherCatV1.15B25,2013-04-17 07:48:00,
2013-04-17 03:53:00,61.8,55.2,30.28,ENE,78,0.0,0.0,79,0.00,,,0.00,WeatherCatV1.15B25,2013-04-17 07:53:00,
2013-04-17 03:58:00,61.8,55.6,30.28,ENE,78,0.0,0.0,80,0.00,,,0.00,WeatherCatV1.15B25,2013-04-17 07:58:00,
2013-04-17 04:03:00,61.7,55.5,30.28,NNE,14,2.0,2.0,80,0.00,,,0.00,WeatherCatV1.15B25,2013-04-17 08:03:00,
2013-04-17 04:08:00,61.6,55.4,30.28,NNE,14,0.0,0.0,80,0.00,,,0.00,WeatherCatV1.15B25,2013-04-17 08:08:00,
2013-04-17 04:13:00,61.5,55.3,30.28,NNE,14,0.0,0.0,80,0.00,,,0.00,WeatherCatV1.15B25,2013-04-17 08:13:00,
2013-04-17 04:18:00,61.5,55.6,30.28,NNE,14,0.0,0.0,81,0.00,,,0.00,WeatherCatV1.15B25,2013-04-17 08:18:00,
2013-04-17 04:23:00,61.5,55.6,30.27,NNE,14,0.0,0.0,81,0.00,,,0.00,WeatherCatV1.15B25,2013-04-17 08:23:00,
2013-04-17 04:28:00,61.5,55.6,30.27,NNE,15,0.0,0.0,81,0.00,,,0.00,WeatherCatV1.15B25,2013-04-17 08:28:00,
2013-04-17 04:33:00,61.5,55.6,30.27,NNE,14,0.0,0.0,81,0.00,,,0.00,WeatherCatV1.15B25,2013-04-17 08:33:00,
2013-04-17 04:38:00,61.4,55.5,30.27,NNE,14,0.0,0.0,81,0.00,,,0.00,WeatherCatV1.15B25,2013-04-17 08:38:00,
2013-04-17 04:43:00,61.2,55.3,30.27,NNE,14,0.0,0.0,81,0.00,,,0.00,WeatherCatV1.15B25,2013-04-17 08:43:00,
2013-04-17 04:48:00,61.1,55.2,30.28,NNE,14,0.0,0.0,81,0.00,,,0.00,WeatherCatV1.15B25,2013-04-17 08:48:00,
2013-04-17 04:53:00,61.0,55.5,30.28,NNE,14,0.0,0.0,82,0.00,,,0.00,WeatherCatV1.15B25,2013-04-17 08:53:00,
2013-04-17 04:58:00,60.9,55.4,30.28,NNE,14,0.0,0.0,82,0.00,,,0.00,WeatherCatV1.15B25,2013-04-17 08:58:00,
2013-04-17 05:03:00,60.8,55.3,30.27,NNE,14,0.0,0.0,82,0.00,,,0.00,WeatherCatV1.15B25,2013-04-17 09:03:00,
2013-04-17 05:08:00,60.7,55.2,30.27,NNE,14,0.0,0.0,82,0.00,,,0.00,WeatherCatV1.15B25,2013-04-17 09:08:00,
2013-04-17 05:13:00,60.6,55.1,30.27,NNE,15,0.0,0.0,82,0.00,,,0.00,WeatherCatV1.15B25,2013-04-17 09:13:00,
2013-04-17 05:18:00,60.4,55.2,30.27,NNE,14,0.0,0.0,83,0.00,,,0.00,WeatherCatV1.15B25,2013-04-17 09:18:00,
2013-04-17 05:23:00,60.2,55.0,30.27,NNE,14,0.0,0.0,83,0.00,,,0.00,WeatherCatV1.15B25,2013-04-17 09:23:00,
2013-04-17 05:28:00,60.0,55.1,30.27,NNE,15,0.0,0.0,84,0.00,,,0.00,WeatherCatV1.15B25,2013-04-17 09:28:00,
2013-04-17 05:33:00,59.9,55.4,30.28,NNE,13,0.0,0.0,85,0.00,,,0.00,WeatherCatV1.15B25,2013-04-17 09:33:00,
2013-04-17 05:38:00,59.8,55.3,30.28,NNE,14,0.0,0.0,85,0.00,,,0.00,WeatherCatV1.15B25,2013-04-17 09:38:00,
2013-04-17 05:43:00,59.7,55.5,30.28,NNE,14,0.0,0.0,86,0.00,,,0.00,WeatherCatV1.15B25,2013-04-17 09:43:00,
2013-04-17 05:48:00,59.6,55.4,30.28,NNE,14,0.0,0.0,86,0.00,,,0.00,WeatherCatV1.15B25,2013-04-17 09:48:00,
2013-04-17 05:53:00,59.5,55.3,30.28,NNE,14,0.0,0.0,86,0.00,,,0.00,WeatherCatV1.15B25,2013-04-17 09:53:00,
2013-04-17 05:58:00,59.6,55.4,30.28,NNE,14,0.0,0.0,86,0.00,,,0.00,WeatherCatV1.15B25,2013-04-17 09:58:00,
2013-04-17 06:03:00,59.7,55.5,30.29,NNE,14,0.0,0.0,86,0.00,,,0.00,WeatherCatV1.15B25,2013-04-17 10:03:00,
2013-04-17 06:08:00,60.1,55.6,30.30,NE,53,10.0,10.0,85,0.00,,,0.00,WeatherCatV1.15B25,2013-04-17 10:08:00,
2013-04-17 06:13:00,60.7,55.8,30.30,NNE,30,3.0,6.0,84,0.00,,,0.00,WeatherCatV1.15B25,2013-04-17 10:13:00,
2013-04-17 06:18:00,60.9,56.0,30.30,NE,42,2.0,3.0,84,0.00,,,0.00,WeatherCatV1.15B25,2013-04-17 10:18:00,
2013-04-17 06:23:00,60.9,56.4,30.29,NE,42,0.0,0.0,85,0.00,,,0.00,WeatherCatV1.15B25,2013-04-17 10:23:00,
2013-04-17 06:28:00,61.1,56.6,30.30,NE,42,0.0,0.0,85,0.00,,,0.00,WeatherCatV1.15B25,2013-04-17 10:28:00,
2013-04-17 06:33:00,61.1,56.2,30.30,NE,42,0.0,0.0,84,0.00,,,0.00,WeatherCatV1.15B25,2013-04-17 10:33:00,
2013-04-17 06:38:00,61.0,56.8,30.30,NE,42,0.0,0.0,86,0.00,,,0.00,WeatherCatV1.15B25,2013-04-17 10:38:00,
2013-04-17 06:43:00,60.9,56.7,30.30,NE,42,0.0,0.0,86,0.00,,,0.00,WeatherCatV1.15B25,2013-04-17 10:43:00,
2013-04-17 06:48:00,60.9,56.7,30.30,NE,42,0.0,0.0,86,0.00,,,0.00,WeatherCatV1.15B25,2013-04-17 10:48:00,
2013-04-17 06:53:00,60.9,57.0,30.30,NE,42,0.0,0.0,87,0.00,,,0.00,WeatherCatV1.15B25,2013-04-17 10:53:00,
2013-04-17 06:58:00,60.8,56.9,30.30,NE,42,0.0,0.0,87,0.00,,,0.00,WeatherCatV1.15B25,2013-04-17 10:58:00,
2013-04-17 07:03:00,60.8,57.2,30.31,NE,42,0.0,0.0,88,0.00,,,0.00,WeatherCatV1.15B25,2013-04-17 11:03:00,
2013-04-17 07:08:00,60.9,57.3,30.32,NE,34,2.0,5.0,88,0.00,,,0.00,WeatherCatV1.15B25,2013-04-17 11:08:00,
2013-04-17 07:13:00,61.0,56.8,30.32,East,83,0.0,4.0,86,0.00,,,0.00,WeatherCatV1.15B25,2013-04-17 11:13:00,
2013-04-17 07:18:00,60.9,56.7,30.32,North,0,2.0,5.0,86,0.00,,,0.00,WeatherCatV1.15B25,2013-04-17 11:18:00,
2013-04-17 07:23:00,60.7,57.4,30.32,NE,45,0.0,2.0,89,0.38,,,0.02,WeatherCatV1.15B25,2013-04-17 11:23:00,
2013-04-17 07:28:00,60.4,57.5,30.31,NE,45,0.0,0.0,90,1.34,,,0.08,WeatherCatV1.15B25,2013-04-17 11:28:00,
2013-04-17 07:33:00,60.1,57.8,30.32,NE,45,0.0,0.0,92,0.56,,,0.19,WeatherCatV1.15B25,2013-04-17 11:33:00,
2013-04-17 07:38:00,59.8,57.5,30.32,NE,46,0.0,0.0,92,0.12,,,0.20,WeatherCatV1.15B25,2013-04-17 11:38:00,
2013-04-17 07:43:00,59.6,57.6,30.32,NE,46,0.0,0.0,93,0.11,,,0.20,WeatherCatV1.15B25,2013-04-17 11:43:00,
2013-04-17 07:48:00,59.5,57.5,30.32,NE,46,0.0,0.0,93,0.07,,,0.21,WeatherCatV1.15B25,2013-04-17 11:48:00,
2013-04-17 07:53:00,59.5,57.8,30.31,NE,46,0.0,0.0,94,0.07,,,0.21,WeatherCatV1.15B25,2013-04-17 11:53:00,
2013-04-17 07:58:00,59.5,57.8,30.31,NE,46,0.0,0.0,94,0.05,,,0.21,WeatherCatV1.15B25,2013-04-17 11:58:00,
2013-04-17 08:03:00,59.5,58.1,30.31,NE,46,0.0,0.0,95,0.04,,,0.21,WeatherCatV1.15B25,2013-04-17 12:03:00,
2013-04-17 08:08:00,59.4,58.0,30.32,NE,46,0.0,0.0,95,0.00,,,0.21,WeatherCatV1.15B25,2013-04-17 12:08:00,
2013-04-17 08:13:00,59.5,58.1,30.32,NE,46,0.0,0.0,95,0.00,,,0.21,WeatherCatV1.15B25,2013-04-17 12:13:00,
2013-04-17 08:18:00,59.4,58.0,30.31,NE,46,0.0,0.0,95,0.00,,,0.21,WeatherCatV1.15B25,2013-04-17 12:18:00,
2013-04-17 08:23:00,59.4,58.0,30.32,North,5,0.0,0.0,95,0.00,,,0.21,WeatherCatV1.15B25,2013-04-17 12:23:00,
2013-04-17 08:28:00,59.3,57.9,30.31,WNW,287,0.0,1.0,95,0.00,,,0.21,WeatherCatV1.15B25,2013-04-17 12:28:00,
2013-04-17 08:33:00,59.3,57.9,30.31,West,267,0.0,0.0,95,0.00,,,0.21,WeatherCatV1.15B25,2013-04-17 12:33:00,
2013-04-17 08:38:00,59.4,58.0,30.32,West,267,0.0,0.0,95,0.00,,,0.21,WeatherCatV1.15B25,2013-04-17 12:38:00,
2013-04-17 08:43:00,59.5,58.4,30.32,WNW,295,0.0,0.0,96,0.00,,,0.22,WeatherCatV1.15B25,2013-04-17 12:43:00,
2013-04-17 08:48:00,59.7,58.6,30.31,WNW,296,0.0,0.0,96,0.00,,,0.22,WeatherCatV1.15B25,2013-04-17 12:48:00,
2013-04-17 08:53:00,60.0,58.9,30.32,WNW,296,0.0,1.0,96,0.00,,,0.22,WeatherCatV1.15B25,2013-04-17 12:53:00,
2013-04-17 08:58:00,60.0,58.6,30.32,WSW,241,0.0,1.0,95,0.00,,,0.22,WeatherCatV1.15B25,2013-04-17 12:58:00,
2013-04-17 09:03:00,60.0,58.6,30.32,SW,226,0.0,2.0,95,0.00,,,0.22,WeatherCatV1.15B25,2013-04-17 13:03:00,
2013-04-17 09:08:00,60.1,58.7,30.32,South,182,0.0,1.0,95,0.00,,,0.22,WeatherCatV1.15B25,2013-04-17 13:08:00,
2013-04-17 09:13:00,60.2,58.8,30.32,SSW,192,0.0,1.0,95,0.00,,,0.22,WeatherCatV1.15B25,2013-04-17 13:13:00,
2013-04-17 09:18:00,60.2,58.8,30.32,South,182,0.0,0.0,95,0.00,,,0.22,WeatherCatV1.15B25,2013-04-17 13:18:00,
2013-04-17 09:23:00,60.4,59.0,30.32,South,182,0.0,0.0,95,0.00,,,0.22,WeatherCatV1.15B25,2013-04-17 13:23:00,
2013-04-17 09:28:00,60.7,59.5,30.31,South,182,0.0,0.0,96,0.00,,,0.22,WeatherCatV1.15B25,2013-04-17 13:28:00,
2013-04-17 09:33:00,60.9,59.5,30.31,South,182,0.0,0.0,95,0.00,,,0.22,WeatherCatV1.15B25,2013-04-17 13:33:00,
2013-04-17 09:38:00,61.3,59.9,30.31,South,182,0.0,0.0,95,0.00,,,0.22,WeatherCatV1.15B25,2013-04-17 13:38:00,
2013-04-17 09:43:00,61.7,60.0,30.31,South,182,0.0,0.0,94,0.00,,,0.22,WeatherCatV1.15B25,2013-04-17 13:43:00,
2013-04-17 09:48:00,62.1,60.3,30.30,South,182,0.0,0.0,94,0.00,,,0.22,WeatherCatV1.15B25,2013-04-17 13:48:00,
2013-04-17 09:53:00,62.7,60.6,30.30,SW,233,0.0,3.0,93,0.00,,,0.22,WeatherCatV1.15B25,2013-04-17 13:53:00,
2013-04-17 09:58:00,63.1,61.0,30.31,West,266,1.0,1.0,93,0.00,,,0.22,WeatherCatV1.15B25,2013-04-17 13:58:00,
2013-04-17 10:03:00,63.3,60.6,30.30,SW,232,1.0,3.0,91,0.00,,,0.22,WeatherCatV1.15B25,2013-04-17 14:03:00,
2013-04-17 10:08:00,63.4,60.4,30.30,SW,236,1.0,2.0,90,0.00,,,0.22,WeatherCatV1.15B25,2013-04-17 14:08:00,
2013-04-17 10:13:00,63.6,60.9,30.31,SW,236,0.0,2.0,91,0.00,,,0.22,WeatherCatV1.15B25,2013-04-17 14:13:00,
2013-04-17 10:18:00,64.0,61.0,30.30,SSW,197,0.0,1.0,90,0.00,,,0.22,WeatherCatV1.15B25,2013-04-17 14:18:00,
2013-04-17 10:23:00,64.3,61.3,30.30,SSW,197,0.0,0.0,90,0.00,,,0.22,WeatherCatV1.15B25,2013-04-17 14:23:00,
2013-04-17 10:28:00,64.7,61.4,30.30,SSW,199,0.0,0.0,89,0.00,,,0.22,WeatherCatV1.15B25,2013-04-17 14:28:00,
2013-04-17 10:33:00,65.0,61.7,30.30,SSW,197,0.0,0.0,89,0.00,,,0.22,WeatherCatV1.15B25,2013-04-17 14:33:00,
2013-04-17 10:38:00,65.5,61.8,30.30,SSW,199,0.0,1.0,88,0.00,,,0.22,WeatherCatV1.15B25,2013-04-17 14:38:00,
2013-04-17 10:43:00,65.8,61.5,30.30,SSW,199,0.0,0.0,86,0.00,,,0.22,WeatherCatV1.15B25,2013-04-17 14:43:00,
2013-04-17 10:48:00,66.0,62.0,30.30,SSW,201,1.0,1.0,87,0.00,,,0.22,WeatherCatV1.15B25,2013-04-17 14:48:00,
2013-04-17 10:53:00,66.2,62.5,30.30,SSW,201,0.0,1.0,88,0.00,,,0.22,WeatherCatV1.15B25,2013-04-17 14:53:00,
2013-04-17 10:58:00,66.4,62.4,30.31,SW,227,0.0,0.0,87,0.00,,,0.22,WeatherCatV1.15B25,2013-04-17 14:58:00,
2013-04-17 11:03:00,66.5,61.8,30.31,ENE,63,2.0,7.0,85,0.00,,,0.22,WeatherCatV1.15B25,2013-04-17 15:03:00,
2013-04-17 11:08:00,66.1,61.1,30.31,NNE,22,1.0,4.0,84,0.00,,,0.22,WeatherCatV1.15B25,2013-04-17 15:08:00,
2013-04-17 11:13:00,65.7,61.4,30.31,ENE,66,0.0,2.0,86,0.00,,,0.22,WeatherCatV1.15B25,2013-04-17 15:13:00,
2013-04-17 11:18:00,65.1,61.1,30.31,NE,51,3.0,5.0,87,0.00,,,0.22,WeatherCatV1.15B25,2013-04-17 15:18:00,
2013-04-17 11:23:00,64.7,61.1,30.31,ESE,120,1.0,2.0,88,0.00,,,0.22,WeatherCatV1.15B25,2013-04-17 15:23:00,
2013-04-17 11:28:00,64.7,61.4,30.31,NE,55,2.0,5.0,89,0.00,,,0.22,WeatherCatV1.15B25,2013-04-17 15:28:00,
2013-04-17 11:33:00,64.8,61.2,30.31,ESE,112,1.0,2.0,88,0.00,,,0.22,WeatherCatV1.15B25,2013-04-17 15:33:00,
2013-04-17 11:43:00,65.3,61.6,30.31,WNW,294,3.0,3.0,88,0.00,,,0.22,WeatherCatV1.15B25,2013-04-17 15:43:00,
2013-04-17 11:48:00,65.8,61.5,30.31,ESE,105,3.0,3.0,86,0.00,,,0.22,WeatherCatV1.15B25,2013-04-17 15:48:00,
2013-04-17 11:53:00,66.2,61.2,30.31,WNW,290,0.0,3.0,84,0.00,,,0.22,WeatherCatV1.15B25,2013-04-17 15:53:00,
2013-04-17 11:58:00,66.5,61.2,30.31,North,9,1.0,5.0,83,0.00,,,0.22,WeatherCatV1.15B25,2013-04-17 15:58:00,
2013-04-17 12:03:00,67.0,61.3,30.30,NE,44,1.0,6.0,82,0.00,,,0.22,WeatherCatV1.15B25,2013-04-17 16:03:00,
2013-04-17 12:08:00,67.9,61.5,30.30,East,94,8.0,8.0,80,0.00,,,0.22,WeatherCatV1.15B25,2013-04-17 16:08:00,
2013-04-17 12:13:00,68.7,61.6,30.30,SSW,205,1.0,4.0,78,0.00,,,0.22,WeatherCatV1.15B25,2013-04-17 16:13:00,
2013-04-17 12:18:00,69.5,60.8,30.30,ENE,63,5.0,7.0,74,0.00,,,0.22,WeatherCatV1.15B25,2013-04-17 16:18:00,
2013-04-17 12:23:00,70.0,60.5,30.29,SE,132,2.0,5.0,72,0.00,,,0.22,WeatherCatV1.15B25,2013-04-17 16:23:00,
2013-04-17 12:28:00,70.6,61.1,30.29,NNW,332,0.0,3.0,72,0.00,,,0.22,WeatherCatV1.15B25,2013-04-17 16:28:00,
2013-04-17 12:33:00,71.1,60.4,30.29,NNE,24,2.0,4.0,69,0.00,,,0.22,WeatherCatV1.15B25,2013-04-17 16:33:00,
2013-04-17 12:38:00,71.6,61.3,30.28,North,5,0.0,3.0,70,0.00,,,0.22,WeatherCatV1.15B25,2013-04-17 16:38:00,
2013-04-17 12:43:00,72.0,61.3,30.28,East,96,5.0,5.0,69,0.00,,,0.22,WeatherCatV1.15B25,2013-04-17 16:43:00,
2013-04-17 12:48:00,72.1,61.4,30.28,SW,214,1.0,2.0,69,0.00,,,0.22,WeatherCatV1.15B25,2013-04-17 16:48:00,
2013-04-17 12:53:00,72.5,60.9,30.28,South,173,0.0,4.0,67,0.00,,,0.22,WeatherCatV1.15B25,2013-04-17 16:53:00,
2013-04-17 12:58:00,73.0,60.1,30.28,ENE,59,2.0,4.0,64,0.00,,,0.22,WeatherCatV1.15B25,2013-04-17 16:58:00,
2013-04-17 13:03:00,72.9,60.9,30.28,WSW,251,1.0,2.0,66,0.00,,,0.22,WeatherCatV1.15B25,2013-04-17 17:03:00,
2013-04-17 13:08:00,72.7,60.2,30.28,South,186,0.0,1.0,65,0.00,,,0.22,WeatherCatV1.15B25,2013-04-17 17:08:00,
2013-04-17 13:13:00,72.2,59.8,30.28,SE,143,0.0,1.0,65,0.00,,,0.22,WeatherCatV1.15B25,2013-04-17 17:13:00,
2013-04-17 13:18:00,71.5,60.0,30.29,SSW,204,8.0,9.0,67,0.00,,,0.22,WeatherCatV1.15B25,2013-04-17 17:18:00,
2013-04-17 13:23:00,69.7,58.7,30.29,SSW,209,1.0,4.0,68,0.00,,,0.22,WeatherCatV1.15B25,2013-04-17 17:23:00,
2013-04-17 13:28:00,68.3,58.1,30.29,South,180,1.0,2.0,70,0.00,,,0.22,WeatherCatV1.15B25,2013-04-17 17:28:00,
2013-04-17 13:33:00,67.2,57.9,30.29,South,178,2.0,6.0,72,0.00,,,0.22,WeatherCatV1.15B25,2013-04-17 17:33:00,
2013-04-17 13:38:00,66.4,57.5,30.29,SW,227,3.0,4.0,73,0.00,,,0.22,WeatherCatV1.15B25,2013-04-17 17:38:00,
2013-04-17 13:43:00,66.1,57.6,30.30,WSW,245,0.0,5.0,74,0.00,,,0.22,WeatherCatV1.15B25,2013-04-17 17:43:00,
2013-04-17 13:48:00,65.8,57.6,30.29,WNW,294,1.0,6.0,75,0.00,,,0.22,WeatherCatV1.15B25,2013-04-17 17:48:00,
2013-04-17 13:53:00,65.5,58.1,30.29,SW,227,5.0,8.0,77,0.00,,,0.22,WeatherCatV1.15B25,2013-04-17 17:53:00,
2013-04-17 13:58:00,65.2,58.2,30.29,South,169,2.0,4.0,78,0.00,,,0.22,WeatherCatV1.15B25,2013-04-17 17:58:00,
2013-04-17 14:03:00,65.0,58.7,30.29,SSW,196,3.0,6.0,80,0.00,,,0.22,WeatherCatV1.15B25,2013-04-17 18:03:00,
2013-04-17 14:08:00,64.7,59.4,30.29,South,172,0.0,7.0,83,0.00,,,0.23,WeatherCatV1.15B25,2013-04-17 18:08:00,
2013-04-17 14:13:00,64.1,59.2,30.30,South,178,4.0,4.0,84,0.00,,,0.23,WeatherCatV1.15B25,2013-04-17 18:13:00,
2013-04-17 14:18:00,63.4,59.5,30.30,SSW,196,3.0,4.0,87,0.09,,,0.24,WeatherCatV1.15B25,2013-04-17 18:18:00,
2013-04-17 14:23:00,63.1,59.8,30.30,WSW,242,1.0,2.0,89,0.07,,,0.24,WeatherCatV1.15B25,2013-04-17 18:23:00,
2013-04-17 14:28:00,62.9,59.9,30.30,SW,232,4.0,4.0,90,0.04,,,0.24,WeatherCatV1.15B25,2013-04-17 18:28:00,
2013-04-17 14:33:00,62.9,60.5,30.29,SSW,213,1.0,1.0,92,0.00,,,0.24,WeatherCatV1.15B25,2013-04-17 18:33:00,
2013-04-17 14:38:00,63.0,60.3,30.30,SW,215,2.0,3.0,91,0.00,,,0.24,WeatherCatV1.15B25,2013-04-17 18:38:00,
2013-04-17 14:43:00,63.1,60.4,30.30,South,186,1.0,1.0,91,0.00,,,0.24,WeatherCatV1.15B25,2013-04-17 18:43:00,
2013-04-17 14:48:00,63.4,61.0,30.29,South,186,1.0,1.0,92,0.00,,,0.24,WeatherCatV1.15B25,2013-04-17 18:48:00,
2013-04-17 14:53:00,63.8,60.5,30.29,SSE,167,0.0,2.0,89,0.00,,,0.24,WeatherCatV1.15B25,2013-04-17 18:53:00,
2013-04-17 14:58:00,64.2,61.5,30.30,ESE,114,0.0,1.0,91,0.00,,,0.24,WeatherCatV1.15B25,2013-04-17 18:58:00,
2013-04-17 15:03:00,64.5,61.2,30.29,ESE,118,0.0,1.0,89,0.00,,,0.24,WeatherCatV1.15B25,2013-04-17 19:03:00,
2013-04-17 15:08:00,64.9,60.9,30.29,ESE,118,0.0,0.0,87,0.00,,,0.24,WeatherCatV1.15B25,2013-04-17 19:08:00,
2013-04-17 15:13:00,65.3,61.0,30.28,SE,136,1.0,2.0,86,0.00,,,0.24,WeatherCatV1.15B25,2013-04-17 19:13:00,
2013-04-17 15:18:00,65.4,61.1,30.27,SW,231,0.0,2.0,86,0.00,,,0.24,WeatherCatV1.15B25,2013-04-17 19:18:00,
2013-04-17 15:23:00,65.9,61.9,30.27,SW,233,3.0,4.0,87,0.00,,,0.24,WeatherCatV1.15B25,2013-04-17 19:23:00,
2013-04-17 15:28:00,66.2,61.9,30.27,WSW,239,0.0,0.0,86,0.00,,,0.24,WeatherCatV1.15B25,2013-04-17 19:28:00,
2013-04-17 15:33:00,66.6,61.9,30.27,SSE,161,3.0,4.0,85,0.00,,,0.24,WeatherCatV1.15B25,2013-04-17 19:33:00,
2013-04-17 15:38:00,66.7,61.7,30.27,South,184,0.0,1.0,84,0.00,,,0.24,WeatherCatV1.15B25,2013-04-17 19:38:00,
2013-04-17 15:43:00,67.0,61.3,30.26,SSW,213,0.0,2.0,82,0.00,,,0.24,WeatherCatV1.15B25,2013-04-17 19:43:00,
2013-04-17 15:48:00,67.2,61.5,30.26,SSW,213,1.0,5.0,82,0.00,,,0.24,WeatherCatV1.15B25,2013-04-17 19:48:00,
2013-04-17 15:53:00,67.4,61.7,30.26,West,272,0.0,4.0,82,0.00,,,0.24,WeatherCatV1.15B25,2013-04-17 19:53:00,
2013-04-17 15:58:00,67.6,61.2,30.26,WSW,257,2.0,4.0,80,0.00,,,0.24,WeatherCatV1.15B25,2013-04-17 19:58:00,
2013-04-17 16:03:00,68.0,61.6,30.26,WSW,239,3.0,6.0,80,0.00,,,0.24,WeatherCatV1.15B25,2013-04-17 20:03:00,
2013-04-17 16:08:00,68.3,61.5,30.26,SW,231,3.0,5.0,79,0.00,,,0.24,WeatherCatV1.15B25,2013-04-17 20:08:00,
2013-04-17 16:13:00,68.6,61.1,30.26,West,260,0.0,6.0,77,0.00,,,0.24,WeatherCatV1.15B25,2013-04-17 20:13:00,
2013-04-17 16:18:00,68.9,61.7,30.26,WSW,244,5.0,7.0,78,0.00,,,0.24,WeatherCatV1.15B25,2013-04-17 20:18:00,
2013-04-17 16:23:00,69.3,61.8,30.26,SW,234,2.0,5.0,77,0.00,,,0.24,WeatherCatV1.15B25,2013-04-17 20:23:00,
2013-04-17 16:28:00,69.5,60.8,30.25,SW,222,2.0,4.0,74,0.00,,,0.24,WeatherCatV1.15B25,2013-04-17 20:28:00,
2013-04-17 16:33:00,69.4,60.7,30.25,WNW,282,2.0,3.0,74,0.00,,,0.24,WeatherCatV1.15B25,2013-04-17 20:33:00,
2013-04-17 16:38:00,69.4,61.1,30.25,SSE,155,2.0,6.0,75,0.00,,,0.24,WeatherCatV1.15B25,2013-04-17 20:38:00,
2013-04-17 16:43:00,69.2,60.5,30.24,West,270,3.0,11.0,74,0.00,,,0.24,WeatherCatV1.15B25,2013-04-17 20:43:00,
2013-04-17 16:48:00,68.8,60.2,30.24,SW,227,2.0,4.0,74,0.00,,,0.24,WeatherCatV1.15B25,2013-04-17 20:48:00,
2013-04-17 16:53:00,68.6,60.0,30.24,WSW,240,3.0,7.0,74,0.00,,,0.24,WeatherCatV1.15B25,2013-04-17 20:53:00,
2013-04-17 16:58:00,68.2,59.6,30.23,NW,318,2.0,4.0,74,0.00,,,0.24,WeatherCatV1.15B25,2013-04-17 20:58:00,
2013-04-17 17:03:00,67.9,59.3,30.23,SSE,164,1.0,6.0,74,0.00,,,0.24,WeatherCatV1.15B25,2013-04-17 21:03:00,
2013-04-17 17:08:00,67.6,59.4,30.23,SW,223,3.0,3.0,75,0.00,,,0.24,WeatherCatV1.15B25,2013-04-17 21:08:00,
2013-04-17 17:13:00,67.6,59.4,30.23,South,169,1.0,2.0,75,0.00,,,0.24,WeatherCatV1.15B25,2013-04-17 21:13:00,
2013-04-17 17:18:00,67.6,59.0,30.23,WSW,249,1.0,4.0,74,0.00,,,0.24,WeatherCatV1.15B25,2013-04-17 21:18:00,
2013-04-17 17:23:00,67.6,59.4,30.23,SW,234,0.0,1.0,75,0.00,,,0.24,WeatherCatV1.15B25,2013-04-17 21:23:00,
2013-04-17 17:28:00,67.6,59.4,30.23,SW,225,0.0,2.0,75,0.00,,,0.24,WeatherCatV1.15B25,2013-04-17 21:28:00,
2013-04-17 17:33:00,67.7,59.1,30.23,WSW,252,3.0,5.0,74,0.00,,,0.24,WeatherCatV1.15B25,2013-04-17 21:33:00,
2013-04-17 17:38:00,67.7,59.5,30.23,SSE,168,1.0,3.0,75,0.00,,,0.24,WeatherCatV1.15B25,2013-04-17 21:38:00,
2013-04-17 17:48:00,67.6,59.4,30.23,ESE,113,1.0,2.0,75,0.00,,,0.24,WeatherCatV1.15B25,2013-04-17 21:48:00,
2013-04-17 17:53:00,67.6,59.4,30.23,South,175,1.0,3.0,75,0.00,,,0.24,WeatherCatV1.15B25,2013-04-17 21:53:00,
2013-04-17 17:58:00,67.7,59.5,30.23,South,180,1.0,3.0,75,0.00,,,0.24,WeatherCatV1.15B25,2013-04-17 21:58:00,
2013-04-17 18:03:00,67.6,59.4,30.23,SSE,157,3.0,3.0,75,0.00,,,0.24,WeatherCatV1.15B25,2013-04-17 22:03:00,
2013-04-17 18:08:00,67.6,59.8,30.22,East,90,0.0,2.0,76,0.00,,,0.24,WeatherCatV1.15B25,2013-04-17 22:08:00,
2013-04-17 18:13:00,67.5,59.7,30.22,SE,145,0.0,1.0,76,0.00,,,0.24,WeatherCatV1.15B25,2013-04-17 22:13:00,
2013-04-17 18:18:00,67.4,59.6,30.22,WSW,254,1.0,4.0,76,0.00,,,0.24,WeatherCatV1.15B25,2013-04-17 22:18:00,
2013-04-17 18:23:00,67.4,59.6,30.22,SW,228,2.0,4.0,76,0.00,,,0.24,WeatherCatV1.15B25,2013-04-17 22:23:00,
2013-04-17 18:28:00,67.4,59.6,30.21,WSW,238,1.0,4.0,76,0.00,,,0.24,WeatherCatV1.15B25,2013-04-17 22:28:00,
2013-04-17 18:33:00,67.4,59.6,30.21,SW,223,0.0,0.0,76,0.00,,,0.24,WeatherCatV1.15B25,2013-04-17 22:33:00,
2013-04-17 18:38:00,67.4,59.6,30.21,West,278,2.0,3.0,76,0.00,,,0.24,WeatherCatV1.15B25,2013-04-17 22:38:00,
2013-04-17 18:43:00,67.3,59.5,30.21,West,270,1.0,6.0,76,0.00,,,0.24,WeatherCatV1.15B25,2013-04-17 22:43:00,
2013-04-17 18:48:00,67.3,59.5,30.21,WSW,256,2.0,2.0,76,0.00,,,0.24,WeatherCatV1.15B25,2013-04-17 22:48:00,
2013-04-17 18:53:00,67.3,59.8,30.21,SW,227,4.0,4.0,77,0.00,,,0.24,WeatherCatV1.15B25,2013-04-17 22:53:00,
2013-04-17 18:58:00,67.2,59.7,30.21,SW,233,4.0,4.0,77,0.00,,,0.24,WeatherCatV1.15B25,2013-04-17 22:58:00,
2013-04-17 19:03:00,67.1,59.6,30.21,West,271,1.0,5.0,77,0.00,,,0.24,WeatherCatV1.15B25,2013-04-17 23:03:00,
2013-04-17 19:08:00,67.0,59.5,30.21,WSW,249,3.0,6.0,77,0.00,,,0.24,WeatherCatV1.15B25,2013-04-17 23:08:00,
2013-04-17 19:13:00,66.8,59.3,30.21,West,265,2.0,2.0,77,0.00,,,0.24,WeatherCatV1.15B25,2013-04-17 23:13:00,
2013-04-17 19:18:00,66.7,59.3,30.21,SW,224,1.0,3.0,77,0.00,,,0.24,WeatherCatV1.15B25,2013-04-17 23:18:00,
2013-04-17 19:23:00,66.7,59.3,30.21,NE,54,0.0,0.0,77,0.00,,,0.24,WeatherCatV1.15B25,2013-04-17 23:23:00,
2013-04-17 19:28:00,66.6,59.2,30.21,NNW,343,0.0,2.0,77,0.00,,,0.24,WeatherCatV1.15B25,2013-04-17 23:28:00,
2013-04-17 19:33:00,66.5,58.7,30.21,WSW,257,0.0,4.0,76,0.00,,,0.24,WeatherCatV1.15B25,2013-04-17 23:33:00,
2013-04-17 19:38:00,66.4,58.6,30.21,NE,35,2.0,2.0,76,0.00,,,0.24,WeatherCatV1.15B25,2013-04-17 23:38:00,
2013-04-17 19:43:00,66.2,58.4,30.21,West,271,0.0,2.0,76,0.00,,,0.24,WeatherCatV1.15B25,2013-04-17 23:43:00,
2013-04-17 19:48:00,66.1,57.9,30.21,West,271,3.0,6.0,75,0.00,,,0.24,WeatherCatV1.15B25,2013-04-17 23:48:00,
2013-04-17 19:53:00,66.0,57.8,30.21,SSW,194,0.0,3.0,75,0.00,,,0.24,WeatherCatV1.15B25,2013-04-17 23:53:00,
2013-04-17 19:58:00,65.9,57.4,30.21,NW,322,1.0,4.0,74,0.00,,,0.24,WeatherCatV1.15B25,2013-04-17 23:58:00,
2013-04-17 20:03:00,65.8,57.3,30.21,WNW,297,3.0,7.0,74,0.00,,,0.24,WeatherCatV1.15B25,2013-04-18 00:03:00,
2013-04-17 20:08:00,65.7,57.2,30.22,NNE,15,2.0,4.0,74,0.00,,,0.24,WeatherCatV1.15B25,2013-04-18 00:08:00,
2013-04-17 20:13:00,65.6,56.7,30.22,North,355,1.0,6.0,73,0.00,,,0.24,WeatherCatV1.15B25,2013-04-18 00:13:00,
2013-04-17 20:18:00,65.5,56.6,30.22,NNW,329,1.0,2.0,73,0.00,,,0.24,WeatherCatV1.15B25,2013-04-18 00:18:00,
2013-04-17 20:23:00,65.4,56.5,30.22,NW,321,0.0,2.0,73,0.00,,,0.24,WeatherCatV1.15B25,2013-04-18 00:23:00,
2013-04-17 20:28:00,65.3,56.4,30.22,WNW,298,1.0,2.0,73,0.00,,,0.24,WeatherCatV1.15B25,2013-04-18 00:28:00,
2013-04-17 20:33:00,65.1,56.2,30.22,North,355,0.0,0.0,73,0.00,,,0.24,WeatherCatV1.15B25,2013-04-18 00:33:00,
2013-04-17 20:38:00,65.1,56.2,30.22,WSW,238,0.0,4.0,73,0.00,,,0.24,WeatherCatV1.15B25,2013-04-18 00:38:00,
2013-04-17 20:43:00,65.0,56.5,30.22,NNE,19,2.0,2.0,74,0.00,,,0.24,WeatherCatV1.15B25,2013-04-18 00:43:00,
2013-04-17 20:48:00,64.9,56.4,30.22,WSW,246,0.0,4.0,74,0.00,,,0.24,WeatherCatV1.15B25,2013-04-18 00:48:00,
2013-04-17 20:53:00,64.9,56.4,30.22,NW,313,1.0,2.0,74,0.00,,,0.24,WeatherCatV1.15B25,2013-04-18 00:53:00,
2013-04-17 20:58:00,64.8,56.3,30.23,West,275,1.0,1.0,74,0.00,,,0.24,WeatherCatV1.15B25,2013-04-18 00:58:00,
2013-04-17 21:03:00,64.7,56.6,30.22,West,277,0.0,0.0,75,0.00,,,0.24,WeatherCatV1.15B25,2013-04-18 01:03:00,
2013-04-17 21:08:00,64.5,56.4,30.22,West,278,0.0,0.0,75,0.00,,,0.24,WeatherCatV1.15B25,2013-04-18 01:08:00,
2013-04-17 21:13:00,64.3,56.2,30.22,NNE,30,0.0,1.0,75,0.00,,,0.24,WeatherCatV1.15B25,2013-04-18 01:13:00,
2013-04-17 21:18:00,64.3,56.2,30.23,WNW,282,0.0,0.0,75,0.00,,,0.24,WeatherCatV1.15B25,2013-04-18 01:18:00,
2013-04-17 21:23:00,64.3,56.2,30.23,NW,305,0.0,0.0,75,0.00,,,0.24,WeatherCatV1.15B25,2013-04-18 01:23:00,
2013-04-17 21:28:00,64.2,56.5,30.23,NW,305,0.0,0.0,76,0.00,,,0.24,WeatherCatV1.15B25,2013-04-18 01:28:00,
2013-04-17 21:33:00,64.0,56.6,30.23,NW,306,0.0,1.0,77,0.00,,,0.24,WeatherCatV1.15B25,2013-04-18 01:33:00,
2013-04-17 21:38:00,63.8,56.4,30.23,NNE,19,0.0,3.0,77,0.00,,,0.24,WeatherCatV1.15B25,2013-04-18 01:38:00,
2013-04-17 21:43:00,63.7,56.0,30.23,NNE,29,1.0,3.0,76,0.00,,,0.24,WeatherCatV1.15B25,2013-04-18 01:43:00,
2013-04-17 21:48:00,63.8,56.1,30.23,NNE,22,0.0,0.0,76,0.00,,,0.24,WeatherCatV1.15B25,2013-04-18 01:48:00,
2013-04-17 21:53:00,63.8,56.1,30.23,East,91,0.0,2.0,76,0.00,,,0.24,WeatherCatV1.15B25,2013-04-18 01:53:00,
2013-04-17 21:58:00,63.8,56.4,30.22,NNE,20,1.0,1.0,77,0.00,,,0.24,WeatherCatV1.15B25,2013-04-18 01:58:00,
2013-04-17 22:03:00,63.7,55.6,30.22,NNE,16,0.0,4.0,75,0.00,,,0.24,WeatherCatV1.15B25,2013-04-18 02:03:00,
2013-04-17 22:08:00,63.8,55.7,30.22,NNE,19,0.0,0.0,75,0.00,,,0.24,WeatherCatV1.15B25,2013-04-18 02:08:00,
2013-04-17 22:13:00,63.8,56.1,30.22,North,9,1.0,2.0,76,0.00,,,0.24,WeatherCatV1.15B25,2013-04-18 02:13:00,
2013-04-17 22:18:00,63.7,55.6,30.21,East,101,0.0,0.0,75,0.00,,,0.24,WeatherCatV1.15B25,2013-04-18 02:18:00,
2013-04-17 22:23:00,63.7,55.3,30.21,East,94,0.0,0.0,74,0.00,,,0.24,WeatherCatV1.15B25,2013-04-18 02:23:00,
2013-04-17 22:28:00,63.7,55.3,30.21,North,5,1.0,2.0,74,0.00,,,0.24,WeatherCatV1.15B25,2013-04-18 02:28:00,
2013-04-17 22:33:00,63.7,55.6,30.20,North,5,0.0,0.0,75,0.00,,,0.24,WeatherCatV1.15B25,2013-04-18 02:33:00,
2013-04-17 22:38:00,63.6,55.5,30.20,North,5,0.0,0.0,75,0.00,,,0.24,WeatherCatV1.15B25,2013-04-18 02:38:00,
2013-04-17 22:43:00,63.5,55.4,30.20,North,5,0.0,0.0,75,0.00,,,0.24,WeatherCatV1.15B25,2013-04-18 02:43:00,
2013-04-17 22:48:00,63.3,55.6,30.21,North,5,0.0,0.0,76,0.00,,,0.24,WeatherCatV1.15B25,2013-04-18 02:48:00,
2013-04-17 22:53:00,63.1,55.8,30.21,North,5,0.0,0.0,77,0.00,,,0.24,WeatherCatV1.15B25,2013-04-18 02:53:00,
2013-04-17 22:58:00,62.9,55.6,30.21,North,5,0.0,0.0,77,0.00,,,0.24,WeatherCatV1.15B25,2013-04-18 02:58:00,
2013-04-17 23:03:00,62.7,55.7,30.21,North,5,0.0,0.0,78,0.00,,,0.24,WeatherCatV1.15B25,2013-04-18 03:03:00,
2013-04-17 23:08:00,62.5,55.5,30.21,North,5,0.0,0.0,78,0.00,,,0.24,WeatherCatV1.15B25,2013-04-18 03:08:00,
2013-04-17 23:13:00,62.3,55.7,30.21,North,5,0.0,0.0,79,0.00,,,0.24,WeatherCatV1.15B25,2013-04-18 03:13:00,
2013-04-17 23:18:00,62.2,55.3,30.20,North,5,0.0,0.0,78,0.00,,,0.24,WeatherCatV1.15B25,2013-04-18 03:18:00,
2013-04-17 23:23:00,62.1,55.5,30.20,North,5,0.0,0.0,79,0.00,,,0.24,WeatherCatV1.15B25,2013-04-18 03:23:00,
2013-04-17 23:28:00,62.0,55.4,30.20,North,5,0.0,0.0,79,0.00,,,0.24,WeatherCatV1.15B25,2013-04-18 03:28:00,
2013-04-17 23:33:00,61.9,55.7,30.21,North,5,0.0,0.0,80,0.00,,,0.24,WeatherCatV1.15B25,2013-04-18 03:33:00,
2013-04-17 23:38:00,61.8,54.9,30.20,North,5,0.0,0.0,78,0.00,,,0.24,WeatherCatV1.15B25,2013-04-18 03:38:00,
2013-04-17 23:43:00,61.8,54.9,30.20,North,5,0.0,1.0,78,0.00,,,0.24,WeatherCatV1.15B25,2013-04-18 03:43:00,
2013-04-17 23:48:00,61.8,55.6,30.20,North,5,0.0,0.0,80,0.00,,,0.24,WeatherCatV1.15B25,2013-04-18 03:48:00,
2013-04-17 23:53:00,61.8,55.6,30.20,North,5,0.0,0.0,80,0.00,,,0.24,WeatherCatV1.15B25,2013-04-18 03:53:00,
2013-04-17 23:58:00,61.8,55.6,30.20,North,0,0.0,1.0,80,0.00,,,0.24,WeatherCatV1.15B25,2013-04-18 03:58:00,